GFSCGP_850_spd_159.txt.gz
Wind_Speed
8 5 12 16 17 9 7 11 11 8 17 10 18 15 12 14 16 22 26 21 20 12 17 12 38 26 28 34 37 35 31 27 28 32 31 26 21 22 21 17 14 17 14 11
4 11 8 9 12 16 16 15 13 17 13 10 16 18 13 9 8 11 28 24 21 17 14 10 18 36 10 17 40 40 36 30 26 25 23 23 23 21 20 22 17 17 13 12
6 6 14 17 15 18 15 14 15 12 15 16 13 15 10 7 14 33 29 31 28 30 15 14 16 14 25 48 44 45 39 27 26 25 27 23 22 24 22 20 17 13 10 5
8 15 16 16 18 14 14 18 18 15 12 9 15 11 13 11 8 20 22 26 28 29 19 17 21 20 28 42 26 39 37 34 30 29 21 24 26 29 23 17 11 9 8 9
6 7 10 17 13 13 16 15 15 14 3 5 8 6 13 16 15 6 14 21 18 15 19 21 19 17 10 21 21 40 38 34 31 25 23 25 25 20 16 11 11 13 13 10
14 13 6 8 11 13 10 12 5 4 0 2 9 9 14 9 21 6 13 23 21 20 20 21 25 19 14 9 16 12 20 29 28 26 24 25 20 17 19 15 16 14 11 7
11 13 7 9 7 11 13 5 4 2 1 4 8 4 11 18 21 12 15 27 32 29 26 32 27 22 18 19 15 16 19 28 25 25 24 26 21 21 17 19 15 11 9 5
7 4 12 15 12 5 9 7 5 6 4 7 8 6 10 20 26 27 34 40 38 31 36 31 31 28 31 27 29 24 20 18 22 24 22 26 22 19 20 17 14 11 6 0
3 6 12 8 8 7 6 5 11 4 4 0 4 8 11 20 19 12 27 33 41 43 37 34 24 32 34 26 26 20 23 24 27 25 24 21 23 25 23 21 21 17 9 5
5 2 4 6 7 10 6 14 12 6 8 5 10 7 14 9 17 11 12 16 30 39 40 31 35 37 32 29 23 24 27 30 25 20 23 25 26 22 23 21 17 12 9 4
6 4 4 7 6 8 3 3 3 2 2 2 1 7 7 16 10 12 19 30 35 26 34 32 33 37 36 32 33 30 29 23 21 28 26 25 22 20 20 17 13 9 6 6
2 2 5 7 7 7 6 7 6 3 1 2 5 5 9 4 10 9 16 28 32 26 13 8 31 40 33 34 31 30 27 24 32 24 22 21 19 16 15 11 7 5 7 10
3 3 2 2 6 5 3 5 5 8 2 2 2 5 6 6 5 14 20 27 32 24 18 21 36 38 40 32 34 32 27 31 27 24 21 17 15 11 8 6 5 7 9 12
3 4 5 7 5 4 6 12 7 6 4 2 3 11 3 4 2 12 36 40 39 34 25 22 27 30 43 40 36 30 29 27 26 24 20 17 10 7 5 5 7 10 13 17
4 3 5 6 13 15 16 10 7 6 10 3 5 9 5 8 12 22 33 39 43 42 44 41 41 43 42 39 35 32 31 28 24 21 17 11 7 3 5 8 11 13 17 19
5 4 6 4 19 19 14 12 10 13 16 17 5 8 3 25 36 32 29 36 36 42 42 41 40 40 40 39 39 37 31 28 23 20 17 12 8 6 8 12 14 16 18 19
4 3 5 6 7 5 7 8 7 8 22 20 3 4 6 16 22 26 25 35 36 37 38 38 36 33 31 34 33 33 32 29 24 21 16 11 9 9 11 13 15 17 18 17
1 3 3 4 8 5 3 5 8 6 19 19 18 16 16 21 30 32 21 28 33 36 39 37 34 34 30 27 29 31 30 26 20 14 9 6 6 9 11 14 15 16 17 15
8 5 1 3 4 3 3 7 7 3 8 17 23 21 25 37 34 23 16 24 29 29 29 30 28 27 23 21 20 19 17 14 10 6 3 5 6 7 10 12 14 14 12 11
12 10 6 5 4 2 5 8 14 3 7 4 17 14 21 23 5 6 22 28 27 24 22 22 24 25 21 16 14 14 14 10 7 4 2 4 5 6 9 12 13 13 11 12
6 6 10 7 2 9 9 4 8 5 9 17 16 18 19 4 8 31 28 29 29 28 26 25 22 14 11 9 7 9 8 7 6 3 2 6 6 7 10 12 14 12 12 12
4 7 5 5 4 5 8 3 5 6 24 31 28 29 22 26 37 33 32 31 28 22 20 18 19 18 11 4 5 4 8 8 5 4 5 5 7 7 7 10 11 7 9 12
3 2 4 3 6 12 8 14 14 39 37 26 31 33 36 39 33 33 34 31 26 23 22 15 16 16 11 8 7 9 10 8 6 6 6 8 9 8 6 8 9 10 12 14
4 6 4 4 6 7 15 19 18 19 30 29 38 41 40 40 37 39 34 31 28 26 22 13 11 12 13 10 10 10 9 8 7 8 9 8 9 10 11 11 11 14 18 18
4 7 6 4 5 4 15 11 35 27 34 40 36 37 41 42 36 32 32 31 30 26 20 13 11 11 11 11 11 11 11 10 11 10 10 10 11 13 12 13 13 14 15 16
3 2 3 2 7 7 14 37 43 43 38 40 43 38 35 38 38 35 33 30 28 25 19 14 12 9 10 9 10 10 11 11 11 12 13 13 13 13 11 10 8 9 10 13

GFSCGP_850_spd_162.txt.gz
Wind_Speed
4 7 14 14 7 9 6 2 2 3 6 4 9 12 8 10 10 16 20 21 22 26 32 20 16 27 38 34 26 20 28 41 37 34 30 32 27 25 20 17 16 18 16 12
3 7 6 8 7 11 10 7 4 4 9 5 11 14 4 5 6 12 27 25 28 25 24 26 31 45 43 32 43 40 26 43 39 34 33 27 25 22 21 20 18 20 19 15
3 5 6 8 8 12 11 7 3 5 7 3 6 7 5 1 7 11 21 30 31 36 35 32 30 38 38 31 23 25 23 19 25 32 30 20 22 26 25 22 26 23 20 15
4 6 7 9 9 9 12 6 6 5 4 3 7 4 4 4 4 4 14 29 33 35 30 24 22 27 31 36 33 32 19 34 26 31 31 32 30 31 29 32 26 18 13 13
5 3 4 7 13 12 3 5 4 4 4 3 4 2 8 9 3 8 8 20 33 34 31 28 28 27 27 29 25 25 27 35 34 32 30 31 33 35 30 23 18 17 17 12
8 14 4 6 7 8 1 2 1 1 4 2 6 5 5 6 9 5 11 20 31 37 34 29 26 28 27 28 31 14 24 18 31 32 39 38 37 32 26 22 22 21 16 12
4 9 5 4 1 3 4 5 0 1 1 6 6 2 8 5 10 15 19 27 35 36 36 33 34 31 23 21 34 17 18 43 21 30 33 34 30 27 24 24 24 19 14 10
3 4 7 5 4 4 5 6 5 6 5 5 5 5 9 6 4 13 30 39 38 41 40 36 33 29 31 29 35 35 29 36 25 29 30 25 25 23 25 23 18 16 11 6
3 4 4 7 7 7 4 5 5 5 2 3 4 7 8 7 3 7 15 20 33 43 44 40 34 31 33 35 35 28 27 31 38 32 27 24 24 24 23 22 18 16 11 6
4 4 6 7 4 10 3 7 5 4 2 3 4 4 8 6 12 8 10 20 21 29 39 38 40 38 34 37 31 30 32 33 34 30 28 27 25 22 22 22 20 14 9 6
4 2 4 4 6 5 3 4 5 4 3 1 2 6 7 11 10 12 18 30 28 32 42 40 37 38 32 27 28 25 28 25 25 24 23 25 26 25 26 25 20 13 10 10
8 4 3 6 5 7 5 8 7 4 4 5 2 6 4 8 15 9 25 34 39 38 34 33 25 26 29 28 26 27 25 26 31 31 33 32 30 27 24 20 15 12 11 10
4 1 2 3 3 3 5 5 4 4 4 3 3 5 11 16 10 7 22 24 22 31 33 22 23 27 25 28 26 25 32 34 35 35 33 29 25 21 20 16 13 12 10 10
5 3 5 5 5 5 3 4 6 4 4 4 4 7 14 11 13 16 22 27 27 26 24 22 24 28 30 27 32 38 38 38 37 32 26 23 20 17 14 12 10 9 10 13
2 1 3 4 7 5 7 7 11 4 6 4 2 4 10 12 12 17 26 31 30 30 35 32 29 33 36 38 41 40 37 31 26 23 21 18 16 14 12 11 9 10 13 17
7 2 3 5 5 11 7 10 7 9 4 5 5 8 9 10 22 21 24 33 32 32 34 38 42 44 45 41 39 36 34 34 30 27 25 19 16 14 11 9 9 12 15 17
4 3 3 4 6 2 3 11 7 10 7 7 4 7 12 9 14 16 25 31 30 31 36 41 42 43 43 41 41 39 36 31 27 24 21 18 13 9 7 8 11 14 16 17
5 3 2 3 4 2 5 5 5 7 9 14 14 15 13 17 16 20 19 38 35 34 33 39 42 43 43 44 42 37 34 32 24 19 15 11 8 6 6 9 11 12 11 9
11 4 1 2 3 6 3 7 2 6 1 7 16 19 24 30 29 18 21 31 35 39 32 34 36 36 35 33 31 30 26 22 19 13 9 6 3 3 5 8 9 9 8 10
9 3 4 3 3 2 4 3 8 8 6 7 13 16 20 18 6 5 25 34 32 32 29 29 29 29 28 24 22 22 19 16 14 8 3 1 4 5 6 7 8 8 8 7
3 3 3 2 1 6 7 7 2 5 8 25 34 24 18 5 6 38 31 32 30 30 27 26 24 22 19 15 12 15 14 12 8 4 2 1 2 4 5 6 7 6 5 5
4 4 0 3 2 7 7 0 6 5 24 38 24 21 13 28 41 40 32 29 29 27 25 21 22 20 15 9 7 11 10 9 6 4 4 6 6 6 5 5 5 6 7 7
3 3 2 5 5 8 6 6 5 19 29 27 27 24 27 38 38 40 39 33 29 26 23 20 19 20 16 11 10 9 12 8 6 5 6 8 7 6 5 5 8 10 13 12
4 3 2 5 3 12 8 13 10 15 18 24 28 31 34 43 43 42 36 32 29 24 20 17 15 13 14 11 10 10 10 9 7 6 7 9 8 9 9 9 10 12 15 16
6 3 1 5 6 9 3 25 5 15 20 25 29 31 34 45 43 41 36 31 27 23 19 15 15 15 15 12 11 11 10 9 9 9 10 12 11 10 9 9 11 12 13 15
1 3 2 1 6 2 5 30 12 14 26 29 33 32 37 43 43 39 36 32 28 24 19 16 16 15 15 14 14 14 13 11 11 12 13 13 12 11 9 8 8 9 9 11

GFSCGP_850_spd_165.txt.gz
Wind_Speed
9 5 12 14 6 8 4 3 3 6 6 6 4 6 7 6 8 12 17 22 25 29 26 24 23 26 28 28 26 28 24 20 17 21 28 32 25 26 21 18 15 15 14 15
2 7 5 7 6 7 8 3 3 3 3 4 1 4 7 7 5 22 23 25 30 31 31 31 30 27 29 26 26 20 19 17 27 11 14 23 27 25 22 18 21 16 16 18
2 6 11 8 8 9 8 4 2 2 3 1 2 4 3 2 5 11 22 30 31 39 42 37 35 34 34 32 30 29 29 24 45 35 34 33 29 23 22 24 22 20 21 19
7 6 11 7 8 10 6 6 6 5 3 3 3 3 4 5 4 2 11 24 33 34 33 32 32 31 30 33 35 31 43 52 49 54 44 53 31 23 22 22 24 22 15 11
5 3 2 5 3 3 4 8 8 5 2 1 2 5 6 8 4 9 12 22 31 35 35 35 33 29 27 30 33 31 29 33 31 31 44 39 29 28 29 25 21 17 14 9
6 6 2 4 5 7 7 4 3 4 3 2 5 5 4 6 9 4 13 21 29 33 30 33 33 30 30 32 37 38 34 32 27 25 23 41 36 33 30 28 20 14 14 14
3 4 4 4 1 4 3 6 2 3 1 5 3 5 8 3 5 8 15 24 33 32 33 36 35 32 33 37 39 39 29 30 31 26 28 30 27 25 25 21 18 15 17 15
1 2 8 5 4 5 4 5 4 5 5 2 2 5 5 5 8 12 22 33 33 38 39 37 34 33 33 33 31 30 29 33 29 27 34 33 25 27 22 25 20 19 17 14
2 4 3 7 6 4 1 2 2 5 1 4 3 5 4 6 3 5 14 18 27 33 34 34 32 29 22 26 30 28 19 22 29 37 35 34 26 25 23 22 22 22 18 12
3 4 3 2 4 2 4 7 1 3 3 3 4 4 5 1 6 5 6 17 29 34 33 33 30 28 23 20 26 27 29 35 28 37 30 26 28 25 25 26 30 24 17 13
3 2 4 6 4 5 3 0 5 5 3 4 1 5 1 8 7 11 14 29 33 37 39 35 33 30 28 24 31 28 33 28 30 27 24 23 24 23 29 32 26 22 18 13
4 3 2 7 4 7 6 6 5 4 2 2 3 5 1 6 8 11 16 30 35 36 40 37 32 29 31 32 29 26 25 26 29 27 30 24 25 30 33 29 25 20 14 11
4 2 2 2 5 4 5 4 5 6 3 4 4 5 3 11 11 18 18 23 32 30 34 34 30 31 34 31 29 29 30 33 34 35 36 32 30 33 34 28 21 15 12 10
5 3 3 5 5 5 1 5 4 5 3 4 5 6 10 13 13 15 12 19 23 27 28 27 28 30 31 33 31 30 36 36 38 37 34 32 30 28 23 19 15 12 9 11
4 5 5 4 8 10 9 8 9 9 5 6 5 3 5 7 6 7 8 31 30 27 29 27 26 30 32 30 35 39 38 38 36 32 29 28 24 21 18 13 10 9 11 14
5 3 2 2 4 14 14 9 11 7 4 5 7 4 2 7 13 14 11 23 28 26 28 27 26 29 32 34 38 40 42 38 36 34 30 27 23 18 13 10 8 11 13 16
4 3 4 3 4 6 3 7 13 6 5 7 7 6 9 8 12 15 12 14 28 33 34 34 35 33 36 42 42 39 34 32 28 26 23 21 16 13 10 8 8 11 12 13
4 2 2 3 5 1 4 1 9 7 5 8 11 10 10 11 19 20 11 12 27 32 34 34 35 37 40 42 41 35 35 34 31 29 22 17 14 8 6 6 8 8 9 10
13 2 4 2 2 4 4 4 2 5 2 7 18 12 9 18 28 6 4 15 24 32 34 34 35 36 35 36 34 35 33 29 25 21 16 12 9 6 6 7 7 8 8 10
12 1 4 1 0 2 5 4 4 5 3 9 16 16 15 10 9 5 19 24 30 32 32 32 32 32 33 32 32 32 28 23 20 15 12 8 5 3 3 3 3 5 6 6
4 3 4 1 3 5 5 6 7 5 6 27 33 33 29 6 1 26 31 31 34 35 35 33 31 31 27 25 24 23 21 18 13 9 6 4 1 2 1 2 3 5 6 6
2 3 2 1 2 2 13 13 3 5 19 38 31 30 27 16 37 40 36 34 34 33 30 27 26 24 20 15 12 14 14 13 10 7 6 5 5 4 4 3 5 5 6 6
2 1 1 3 3 6 15 11 17 14 12 26 31 35 29 42 37 41 37 32 30 29 27 23 21 21 19 17 14 14 10 7 7 7 8 7 7 6 6 6 6 7 8 8
4 1 2 2 3 5 10 26 17 3 7 23 31 31 36 42 37 35 36 32 29 26 24 21 21 21 20 16 14 12 12 11 10 9 11 10 8 7 7 7 7 9 10 12
5 7 3 3 3 6 7 25 8 11 15 18 20 27 35 41 35 39 38 34 29 26 22 19 18 18 19 16 15 14 13 12 13 13 13 11 9 7 7 7 7 8 10 12
3 4 3 2 6 6 8 16 5 13 19 26 29 30 34 40 43 39 35 31 28 24 22 20 18 17 17 16 16 15 15 13 13 14 14 12 9 8 8 7 7 8 9 10

GFSCGP_850_spd_168.txt.gz
Wind_Speed
15 5 9 9 9 10 5 3 7 9 6 7 3 14 14 5 10 13 17 15 27 28 22 19 21 25 29 29 31 31 32 29 26 24 22 19 19 18 16 20 17 20 21 18
4 4 7 8 11 15 4 2 4 3 5 5 8 9 16 4 6 15 17 17 27 30 29 27 23 23 26 28 35 35 34 30 29 25 25 18 12 17 17 13 17 19 20 18
4 6 5 9 9 13 6 4 2 2 2 3 7 2 6 2 2 13 16 18 29 36 37 33 33 30 29 30 36 38 34 28 28 20 22 22 15 19 26 15 22 27 21 17
6 7 4 6 6 10 4 6 6 6 1 5 3 4 5 5 3 5 15 18 28 37 40 39 38 37 34 32 30 34 36 31 33 29 30 34 32 27 29 32 35 32 33 24
4 6 6 9 9 13 6 5 7 6 3 4 1 4 5 4 5 9 10 22 23 29 38 42 42 38 35 33 32 34 37 33 39 36 28 23 26 26 24 31 29 27 13 12
6 4 7 9 5 11 5 2 3 4 2 2 4 4 4 8 11 2 4 14 24 26 31 37 40 37 37 37 39 40 38 33 28 29 28 27 28 33 26 30 22 19 16 19
2 4 4 4 4 3 4 4 2 2 1 5 4 2 8 4 6 11 12 21 24 26 31 29 31 34 36 36 32 30 26 20 21 20 18 20 27 31 28 31 22 18 15 14
1 1 6 5 5 6 5 7 4 5 5 3 3 5 5 4 6 11 24 20 24 26 27 31 33 34 29 26 25 26 25 24 23 25 22 24 24 26 22 22 18 8 10 21
3 4 2 5 5 6 4 4 3 5 2 4 3 4 8 5 5 4 11 19 21 26 29 30 30 28 26 25 23 23 24 27 27 20 21 26 24 27 23 19 18 18 19 23
4 3 2 2 2 3 4 4 1 2 4 4 0 2 2 4 3 6 7 14 24 26 28 26 26 25 25 21 22 22 21 20 17 19 25 24 21 21 22 23 19 22 25 21
2 1 2 4 5 6 2 2 4 4 2 4 3 2 4 4 3 8 7 20 24 25 25 27 25 22 17 18 18 21 20 18 19 25 29 26 25 20 24 22 24 25 23 19
5 3 2 6 3 7 6 6 4 4 2 2 3 3 5 4 4 2 10 21 22 26 28 29 26 20 20 15 17 25 25 28 19 24 24 20 27 25 27 26 27 26 22 18
1 2 3 5 5 3 4 4 4 5 3 3 4 4 4 2 6 10 12 12 22 26 21 21 25 24 26 23 24 22 22 26 21 20 22 24 33 30 26 28 29 24 18 14
3 3 4 5 5 4 4 5 5 5 3 4 4 6 4 9 9 12 18 9 14 23 24 24 26 26 25 26 26 24 22 24 23 23 24 30 27 27 30 29 24 18 14 9
4 2 3 3 4 2 4 5 6 5 4 5 3 5 2 5 7 9 10 7 18 22 25 29 27 25 26 26 26 24 21 21 21 26 25 25 27 30 28 24 18 12 9 9
7 3 3 4 4 5 4 5 7 2 4 2 2 3 7 11 11 16 13 9 14 17 19 26 27 28 27 29 26 22 22 25 31 32 33 31 29 25 20 16 12 10 9 8
4 3 2 2 6 3 4 8 8 5 4 6 5 4 5 6 8 11 14 18 13 16 22 29 30 31 32 31 28 28 23 28 26 25 23 22 19 16 13 10 8 5 5 7
4 4 2 3 3 1 6 2 7 5 1 4 6 7 8 10 9 11 14 18 17 20 27 32 34 36 34 35 36 33 29 25 25 22 19 19 15 11 8 5 4 4 6 8
11 2 2 1 2 3 2 4 2 7 6 6 10 10 14 17 16 9 13 16 15 17 21 28 30 33 36 39 41 42 36 31 29 25 20 17 13 8 3 2 2 4 8 9
9 7 2 3 1 0 2 4 12 2 4 10 14 18 18 18 4 4 13 16 17 19 22 26 28 32 33 31 29 29 31 27 23 19 15 10 5 2 0 2 4 6 7 9
4 2 3 2 3 3 5 13 12 4 4 5 23 27 19 5 3 22 16 20 21 23 24 27 29 30 28 28 29 30 26 23 19 14 10 6 5 4 3 4 6 7 8 8
1 1 3 1 2 3 16 8 1 4 20 14 23 19 18 25 33 31 26 27 28 29 28 28 30 30 27 22 20 20 17 15 11 9 8 7 3 3 5 5 6 7 7 7
2 3 3 1 2 1 6 8 14 14 18 14 22 25 25 28 32 35 36 32 30 29 28 26 25 25 20 14 9 9 10 9 5 4 5 3 3 5 6 6 8 8 8 9
7 7 3 3 5 8 5 23 16 6 10 20 28 30 28 40 37 38 35 31 28 26 25 22 19 19 18 16 15 13 13 11 8 6 8 8 8 6 7 8 9 9 11 12
4 9 5 3 3 12 5 20 12 7 13 21 28 30 29 41 37 37 33 29 27 26 23 19 18 18 17 14 13 13 12 11 10 10 10 9 7 6 7 7 8 10 13 14
4 3 3 3 10 6 17 20 7 8 20 28 30 29 34 40 41 37 34 29 26 24 23 21 19 17 19 17 16 16 14 11 10 12 11 9 8 7 8 9 9 11 12 13